Temperature
13 13 13 14 14 14 14 14 14 14 14 15 15 16 16 16 16 16 16 16 16 16 16 16 16 16 16 16 16 16 15 15 15 15 15 15 15 15
13 13 13 13 13 14 14 14 14 14 14 15 15 15 15 15 15 15 16 16 16 16 16 16 16 16 16 15 15 15 15 15 15 15 15 15 15 14
13 13 13 13 13 14 14 14 14 14 14 15 15 15 15 15 15 15 15 15 15 15 15 15 15 15 15 15 15 15 15 15 15 15 15 14 14 14
13 13 13 13 13 13 14 14 14 14 14 14 14 14 15 15 15 15 15 15 15 15 15 15 15 15 15 15 15 15 15 15 15 15 14 14 14 14
13 13 13 13 13 13 13 14 14 14 14 14 14 14 14 14 14 14 14 14 14 15 15 15 15 15 15 15 15 14 14 14 14 14 14 14 14 14
13 13 13 13 13 13 13 13 13 14 14 14 14 14 14 14 14 14 14 14 14 14 14 14 14 14 14 14 14 14 14 14 14 14 14 14 13 13
13 13 13 13 13 13 13 13 13 13 13 13 14 14 14 14 14 14 14 14 14 14 14 14 14 14 14 14 14 14 14 14 14 13 13 13 13 13
12 13 13 13 13 13 13 13 13 13 13 13 13 13 14 14 14 14 14 14 13 13 13 13 14 14 14 14 14 14 13 13 13 13 13 13 13 13
12 12 13 13 13 13 13 13 13 13 13 13 13 13 13 14 14 13 13 14 14 14 13 13 13 13 13 13 13 13 13 13 13 13 13 13 12 12
12 12 12 12 12 12 13 13 13 13 13 13 13 13 14 14 14 14 13 13 13 13 13 13 13 13 13 13 13 13 13 13 13 12 12 12 12 12
12 12 12 12 12 12 12 13 13 13 13 13 13 13 13 13 13 13 13 13 12 12 12 12 13 13 13 13 12 12 12 12 12 12 12 12 12 12
12 12 12 12 12 12 12 12 13 13 13 13 13 13 13 13 13 13 13 13 12 12 12 12 12 12 12 12 12 12 12 12 12 12 12 11 11 11
12 12 12 12 12 12 12 12 12 12 12 12 13 13 13 13 13 13 13 12 12 12 12 12 12 12 12 12 12 12 12 12 11 11 11 11 11 11
12 12 12 12 12 12 12 12 12 12 12 12 12 12 12 12 12 12 12 12 12 12 12 12 12 12 12 12 11 11 11 11 11 11 11 11 11 10
12 12 12 12 12 12 12 12 12 12 12 12 12 12 12 12 12 12 12 12 12 12 12 12 12 12 11 11 11 11 11 11 11 11 11 10 10 10
12 12 12 12 12 12 12 12 12 12 12 12 12 12 12 12 12 12 12 12 12 12 11 11 11 11 11 11 11 11 11 11 11 11 11 10 10 10
12 12 12 12 12 12 12 12 12 12 12 12 12 12 12 11 11 11 11 11 11 11 11 11 11 11 11 11 11 11 11 11 11 10 10 10 10 10
12 12 12 12 12 12 11 11 11 11 11 11 11 11 11 11 11 11 11 11 11 11 11 11 11 10 10 10 10 11 11 10 10 10 10 10 10 10
12 12 11 11 11 11 11 11 11 11 11 11 11 11 11 11 11 11 11 11 11 11 11 11 10 10 10 10 10 10 10 10 10 10 10 10 10 10
11 11 11 11 11 11 11 11 11 11 11 11 11 11 11 11 11 11 11 11 11 10 10 10 10 10 10 10 10 10 10 10 10 10 10 10 10 9
11 11 11 11 11 11 11 11 11 11 10 10 11 11 11 10 10 10 10 10 10 10 10 10 11 10 10 10 10 10 10 10 10 10 10 9 9 9
10 10 10 10 10 10 10 10 10 10 10 10 10 10 10 10 10 10 10 10 10 10 10 10 10 10 10 10 10 10 10 10 10 9 9 9 9 9
9 9 9 9 10 10 10 10 10 10 10 10 10 10 10 10 10 10 10 10 10 10 10 10 10 10 10 10 10 10 10 10 9 9 9 9 9 9
Wind_Speed
3 3 3 3 3 3 3 4 4 3 3 3 2 3 4 7 10 12 12 16 18 18 17 17 17 17 17 17 16 15 15 14 14 13 12 12 11 11
2 2 2 2 2 3 3 3 4 4 3 3 3 2 3 4 9 10 10 14 17 17 17 17 17 17 17 16 16 15 15 14 14 14 13 12 12 12
2 2 3 2 2 2 2 3 3 4 4 3 2 3 3 4 4 6 8 8 11 15 16 17 17 16 16 16 16 15 15 15 14 14 14 13 13 12
3 2 3 2 2 2 2 3 3 3 4 3 2 3 4 5 5 6 6 7 7 12 15 16 16 16 16 16 15 15 15 15 15 15 15 15 14 13
2 2 3 2 2 2 2 3 3 3 3 3 3 2 2 3 4 4 5 4 6 9 13 14 15 15 16 16 16 15 15 15 15 16 15 15 14 14
2 2 2 3 3 3 3 3 2 2 2 3 3 2 2 3 4 5 4 4 4 5 6 9 11 13 14 15 15 15 15 15 16 16 16 16 15 14
3 2 1 2 3 2 2 3 3 2 2 3 3 2 2 4 5 4 4 4 3 3 4 4 5 6 8 12 14 15 15 16 16 16 16 16 15 14
3 3 2 2 2 2 2 3 4 4 4 3 3 4 4 4 3 4 4 4 3 3 4 4 4 5 6 8 12 15 16 16 16 16 16 16 15 14
2 2 2 2 2 1 2 2 3 5 6 5 5 6 6 6 6 6 6 5 4 4 4 3 3 4 4 7 12 14 15 16 16 16 16 16 15 14
3 2 2 2 2 1 0 1 1 2 4 4 6 6 6 6 7 7 6 4 2 2 3 3 3 3 3 5 11 13 14 15 15 15 15 15 15 14
3 3 2 2 3 2 1 1 2 3 3 3 5 6 7 7 7 5 6 5 3 3 3 3 3 2 2 3 6 11 13 14 15 15 15 15 14 13
3 4 4 3 4 2 0 1 2 3 2 2 1 2 3 5 8 7 8 6 3 3 4 4 4 3 2 2 3 6 8 11 13 14 14 14 15 11
2 3 4 6 5 4 2 2 3 3 2 1 1 1 1 2 3 4 5 6 6 4 6 5 4 4 3 2 2 4 5 5 7 9 13 14 15 12
2 3 4 6 6 5 3 3 3 2 1 1 1 2 2 2 3 3 4 4 4 5 8 7 4 5 5 3 3 3 4 5 6 5 7 11 12 13
2 5 6 7 6 4 4 4 2 1 1 2 3 3 2 2 2 2 2 2 2 3 7 7 5 5 5 4 4 3 3 4 5 5 6 7 6 6
3 5 6 6 4 4 4 3 1 2 2 2 3 2 1 2 2 2 2 3 2 1 2 6 7 7 5 4 5 4 4 4 5 6 5 5 6 9
2 3 3 3 4 4 3 3 2 2 2 2 2 2 2 2 2 2 2 2 3 3 3 2 3 4 4 5 4 5 5 4 5 6 6 5 5 7
1 2 3 4 4 4 4 4 3 3 3 3 3 3 3 4 3 2 2 3 4 4 4 4 3 2 1 2 5 6 6 5 5 6 5 5 6 6
1 3 4 4 5 4 4 4 4 4 3 3 4 4 4 4 4 4 4 4 4 5 5 5 5 5 5 5 4 7 7 6 6 5 6 6 6 6
1 3 5 5 5 5 5 4 5 4 3 3 4 4 4 4 5 5 6 6 6 5 5 5 6 7 8 6 4 4 9 7 7 7 5 4 2 2
4 4 4 5 5 5 5 5 5 5 5 4 4 5 5 5 5 6 6 9 7 6 8 8 8 9 4 3 2 3 3 9 9 6 6 5 3 2
5 5 5 5 5 5 5 5 5 5 5 5 5 5 5 5 7 7 6 6 7 8 8 6 5 5 5 7 7 6 4 3 5 8 9 9 7 7
5 5 5 6 5 5 5 5 5 5 5 5 5 5 5 5 6 6 7 7 6 7 7 6 5 5 6 7 7 6 7 5 4 4 4 9 13 11
Wind_Direction
245 235 226 227 223 213 201 186 179 201 237 229 224 211 189 191 196 195 198 201 201 202 200 199 198 196 198 201 201 203 203 203 202 201 202 204 204 200
246 244 242 232 231 219 211 208 192 185 212 222 220 210 189 193 191 190 197 199 200 200 199 198 199 198 198 199 201 202 202 202 202 201 201 203 201 200
266 246 250 235 227 225 214 210 203 185 209 232 219 197 185 189 181 180 190 191 197 200 199 199 199 199 199 200 201 201 200 200 199 201 201 200 198 198
275 262 256 242 229 226 210 214 211 194 192 216 216 198 201 193 183 183 185 190 193 200 199 200 200 200 200 199 198 199 199 199 199 200 201 200 200 200
274 260 257 233 230 234 221 218 217 207 190 198 215 198 199 183 176 181 181 184 195 201 200 201 201 200 199 199 198 198 197 197 198 200 199 198 198 199
294 261 239 216 219 221 221 222 213 200 190 194 203 190 186 180 171 178 182 190 195 188 193 195 197 199 201 200 199 198 198 197 197 198 198 197 195 196
335 318 279 244 232 210 206 202 193 190 187 194 195 188 186 178 187 182 184 175 187 179 175 187 185 193 201 203 201 200 201 200 198 195 193 193 191 192
345 334 318 318 306 289 264 215 191 190 194 195 200 197 202 197 187 180 172 169 195 186 176 192 183 197 202 205 204 201 201 200 197 194 192 191 190 190
343 333 336 345 349 332 307 287 234 221 208 197 201 207 201 195 184 186 187 181 187 172 159 190 187 203 206 205 199 199 200 200 199 196 193 191 190 189
348 338 330 330 333 339 322 330 289 267 241 220 213 218 215 202 193 190 182 157 109 142 152 180 186 198 200 200 199 199 198 198 198 196 191 190 190 189
347 349 337 327 328 1 58 301 301 298 287 252 227 223 215 201 182 162 164 166 178 191 177 169 174 168 184 206 204 199 197 196 196 195 192 191 190 188
341 342 346 334 328 332 237 232 263 276 287 310 291 249 212 194 191 190 184 181 172 191 189 170 166 156 186 215 201 202 202 203 200 196 195 194 188 186
330 329 325 333 330 322 300 240 248 252 242 238 259 263 214 199 201 198 193 188 185 199 181 165 166 166 171 180 206 202 197 197 198 203 201 197 192 187
297 304 308 318 322 322 308 281 289 280 211 206 226 242 234 221 208 197 194 197 197 192 177 167 168 174 166 170 202 200 197 194 192 197 201 198 198 198
282 297 309 317 322 323 308 297 301 287 217 216 230 240 233 221 194 179 173 165 156 172 176 181 169 167 168 175 180 179 189 202 194 190 191 192 194 191
312 320 326 330 325 309 311 313 292 249 233 231 238 245 226 197 195 184 178 172 167 182 183 187 181 170 176 178 176 185 184 189 190 194 190 194 200 199
318 338 344 342 339 333 326 310 294 278 259 250 236 237 234 222 217 194 173 171 186 191 188 178 175 179 180 174 184 196 190 194 188 180 182 196 207 205
18 329 321 319 313 310 312 310 298 272 255 241 236 232 231 228 227 215 195 192 203 205 200 184 166 155 150 245 206 196 195 197 187 177 175 192 214 211
344 305 301 299 297 294 291 286 282 275 262 244 240 235 232 230 225 223 216 211 216 216 208 189 183 186 203 224 233 204 192 187 176 180 187 192 209 212
298 291 292 290 288 287 285 282 280 280 266 251 247 243 234 229 228 226 219 217 218 216 213 203 203 203 209 211 207 215 199 186 184 192 193 191 211 217
324 311 303 299 295 290 285 281 276 272 266 255 248 244 239 233 238 236 229 222 216 215 219 221 218 203 181 140 179 228 220 206 198 188 179 173 188 195
332 324 318 313 308 303 300 296 289 280 274 265 260 255 247 238 239 237 233 229 224 221 224 222 192 173 179 200 217 219 216 205 213 214 201 187 179 195
332 328 325 327 325 320 315 311 306 299 288 280 272 263 253 250 246 240 235 232 231 227 221 212 193 193 203 207 213 215 210 201 190 195 228 227 221 225
Height
1473 1474 1475 1476 1478 1479 1481 1483 1485 1485 1486 1487 1489 1491 1493 1495 1498 1500 1502 1505 1508 1511 1514 1516 1518 1520 1522 1524 1526 1528 1529 1531 1533 1534 1535 1536 1537 1538
1470 1471 1472 1473 1475 1476 1477 1479 1481 1482 1483 1484 1485 1487 1489 1491 1494 1496 1499 1501 1504 1507 1510 1512 1514 1517 1519 1520 1522 1524 1526 1528 1529 1531 1532 1533 1534 1535
1468 1469 1470 1471 1472 1473 1474 1476 1477 1479 1479 1480 1482 1484 1486 1488 1490 1492 1495 1497 1500 1503 1505 1508 1510 1513 1515 1517 1519 1521 1522 1524 1526 1527 1528 1529 1530 1531
1466 1466 1467 1468 1469 1470 1471 1473 1474 1476 1477 1477 1479 1481 1482 1484 1486 1489 1491 1493 1496 1499 1501 1504 1506 1508 1510 1513 1515 1517 1518 1520 1522 1523 1525 1526 1527 1528
1464 1464 1465 1466 1467 1468 1469 1470 1471 1473 1474 1474 1475 1477 1479 1481 1483 1485 1487 1490 1492 1494 1497 1499 1501 1504 1506 1508 1510 1512 1514 1516 1518 1519 1521 1522 1523 1524
1462 1462 1463 1464 1464 1465 1466 1468 1469 1470 1471 1472 1473 1474 1476 1478 1480 1482 1484 1486 1488 1490 1492 1494 1497 1499 1502 1504 1506 1508 1510 1512 1513 1515 1517 1518 1519 1520
1461 1461 1461 1462 1463 1463 1464 1465 1466 1467 1468 1469 1470 1471 1473 1474 1476 1478 1480 1482 1484 1486 1488 1490 1492 1494 1496 1499 1501 1503 1505 1507 1509 1511 1512 1514 1515 1516
1460 1460 1460 1461 1461 1462 1462 1463 1464 1464 1465 1466 1467 1468 1469 1471 1473 1475 1477 1478 1480 1482 1484 1486 1488 1490 1492 1494 1496 1498 1500 1502 1504 1506 1508 1509 1510 1512
1460 1460 1460 1459 1459 1460 1460 1461 1461 1462 1463 1464 1464 1465 1466 1468 1470 1471 1473 1475 1476 1478 1481 1482 1484 1485 1488 1489 1491 1493 1495 1497 1499 1501 1503 1504 1506 1508
1460 1459 1459 1458 1458 1458 1458 1458 1459 1459 1460 1460 1461 1462 1464 1465 1467 1468 1469 1472 1473 1475 1477 1478 1480 1481 1483 1485 1487 1489 1491 1493 1494 1496 1498 1500 1502 1503
1460 1459 1458 1458 1457 1457 1456 1456 1456 1457 1457 1458 1458 1459 1461 1462 1463 1465 1466 1468 1469 1471 1473 1475 1476 1477 1479 1481 1483 1485 1487 1488 1490 1492 1493 1495 1497 1499
1460 1459 1458 1457 1456 1456 1455 1454 1454 1454 1455 1455 1456 1456 1457 1459 1460 1461 1463 1464 1465 1467 1469 1471 1472 1473 1475 1476 1478 1480 1482 1484 1486 1487 1489 1491 1492 1494
1460 1459 1458 1457 1456 1455 1454 1453 1453 1453 1453 1453 1453 1454 1454 1455 1457 1458 1459 1461 1462 1463 1465 1467 1467 1469 1471 1472 1474 1476 1478 1480 1481 1483 1485 1486 1488 1490
1460 1459 1457 1456 1455 1454 1453 1452 1452 1451 1451 1451 1451 1451 1452 1452 1454 1455 1456 1457 1459 1460 1461 1463 1463 1465 1466 1468 1470 1471 1473 1475 1477 1478 1480 1482 1484 1485
1460 1459 1457 1456 1455 1453 1452 1451 1451 1450 1450 1449 1449 1449 1449 1450 1451 1452 1453 1454 1455 1456 1457 1458 1459 1461 1462 1464 1465 1467 1469 1470 1472 1474 1475 1477 1479 1481
1459 1458 1456 1455 1454 1453 1452 1451 1450 1449 1448 1448 1447 1447 1448 1448 1449 1449 1450 1451 1452 1452 1453 1454 1456 1457 1458 1460 1462 1463 1465 1466 1467 1469 1471 1473 1475 1476
1457 1456 1455 1454 1453 1452 1451 1449 1449 1448 1447 1446 1446 1446 1446 1446 1446 1447 1448 1448 1449 1449 1450 1451 1453 1454 1455 1456 1457 1459 1461 1462 1464 1465 1467 1468 1470 1472
1456 1455 1453 1452 1451 1450 1449 1448 1447 1446 1446 1445 1444 1444 1444 1444 1444 1444 1445 1445 1446 1446 1447 1448 1450 1451 1452 1453 1454 1454 1456 1458 1459 1461 1463 1464 1466 1468
1454 1453 1452 1450 1449 1448 1447 1446 1445 1444 1443 1443 1442 1442 1442 1441 1441 1441 1442 1442 1442 1443 1444 1445 1446 1447 1447 1448 1449 1451 1452 1453 1455 1456 1458 1460 1462 1465
1452 1451 1449 1448 1447 1445 1444 1443 1442 1441 1440 1440 1439 1439 1438 1438 1437 1437 1438 1438 1438 1439 1440 1440 1441 1442 1443 1444 1445 1446 1448 1449 1451 1452 1454 1457 1459 1461
1449 1448 1447 1445 1444 1443 1441 1440 1439 1438 1437 1436 1435 1435 1434 1434 1433 1433 1433 1433 1433 1434 1434 1435 1437 1439 1440 1441 1441 1441 1444 1446 1447 1448 1450 1452 1453 1455
1447 1445 1444 1443 1441 1440 1438 1437 1435 1434 1433 1432 1431 1430 1430 1429 1428 1428 1428 1428 1428 1428 1429 1430 1432 1433 1434 1434 1435 1437 1439 1441 1442 1444 1446 1447 1448 1449
1443 1442 1440 1439 1437 1436 1434 1433 1432 1430 1429 1428 1427 1426 1425 1424 1423 1422 1422 1422 1422 1422 1423 1424 1425 1427 1427 1429 1430 1431 1433 1435 1437 1438 1440 1442 1444 1446